Flag for India

Past Weather in Buxar, Bihar, India — Yesterday and Last 2 Weeks

Now
81 °F

Fog.


Feels Like: 88 °F
Forecast: 90 / 79 °F
Wind: No wind

Location: Lucknow / Amausi
Current Time: Sep 20, 2020 at 7:46:57 am
Latest Report: Sep 20, 2020 at 6:30 am
Visibility: N/A
Pressure29.59 "Hg
Humidity: 94%
Dew Point: 79 °F
Location of BuxarLocation

Past Weather in Buxar — Graph

°F

Buxar Temperature Yesterday

Maximum temperature yesterday: 91 °F (at 1:00 pm)
Minimum temperature yesterday: 82 °F (at 12:30 am)
Average temperature yesterday: 86 °F

High & Low Weather Summary for the Past Weeks

 TemperatureHumidityPressure
High97 °F (Sep 7, 2:30 pm)94% (Sep 5, 6:30 am)29.77 "Hg (Sep 5, 6:30 am)
Low81 °F (Sep 5, 6:30 am)56% (Sep 7, 5:30 pm)29.50 "Hg (Sep 10, 3:30 pm)
Average88 °F81%29.62 "Hg
* Reported Sep 5 6:30 am — Sep 20 6:30 am, Buxar. Weather by CustomWeather, © 2020

Note: Actual official high and low records may vary slightly from our data, if they occured in-between our weather recording intervals... More about our weather records

Buxar Weather History for the Previous 24 Hours

Scroll right to see more
 ConditionsComfort  
Time TempWeatherWind HumidityBarometerVisibility
6:30 am
Sun, Sep 20
81 °FFog.No wind94%29.59 "HgN/A
6:00 am81 °FFog.No wind94%29.59 "HgN/A
5:30 am82 °FFog.No wind89%29.56 "HgN/A
5:00 am82 °FFog.No wind89%29.56 "HgN/A
4:30 am82 °FFog.No wind89%29.56 "Hg1 mi
4:00 am82 °FFog.No wind89%29.56 "Hg1 mi
3:30 am82 °FFog.No wind89%29.56 "Hg2 mi
3:00 am82 °FFog.No wind89%29.56 "Hg2 mi
2:30 am82 °FFog.2 mph89%29.56 "Hg2 mi
2:00 am82 °FFog.2 mph89%29.56 "Hg2 mi
1:30 am82 °FFog.No wind89%29.56 "Hg2 mi
1:00 am82 °FFog.2 mph89%29.56 "Hg2 mi
12:30 am82 °FFog.2 mph89%29.56 "Hg2 mi
12:00 am84 °FFog.2 mph89%29.56 "Hg2 mi
11:30 pm
Sat, Sep 19
84 °FFog.2 mph89%29.56 "Hg2 mi
11:00 pm84 °FFog.2 mph89%29.56 "Hg2 mi
10:30 pm84 °FFog.2 mph89%29.56 "Hg2 mi
10:00 pm86 °FFog.2 mph84%29.56 "Hg2 mi
9:30 pm86 °FFog.5 mph84%29.56 "Hg2 mi
9:00 pm86 °FFog.5 mph84%29.56 "Hg2 mi
8:30 pm88 °FFog.5 mph79%29.56 "Hg2 mi
8:00 pm88 °FFog.5 mph79%29.56 "Hg2 mi
7:30 pm88 °FFog.5 mph79%29.53 "Hg2 mi
6:30 pm88 °FFog.5 mph79%29.53 "Hg2 mi
6:00 pm90 °FBroken clouds.5 mph71%29.53 "Hg2 mi
5:30 pm90 °FBroken clouds.6 mph71%29.53 "Hg2 mi
5:00 pm91 °FScattered clouds.6 mph67%29.53 "Hg2 mi
4:30 pm91 °FScattered clouds.6 mph67%29.50 "Hg2 mi
4:00 pm91 °FScattered clouds.3 mph67%29.53 "Hg2 mi
3:30 pm91 °FScattered clouds.7 mph71%29.53 "Hg2 mi
3:00 pm90 °FScattered clouds.3 mph71%29.53 "Hg2 mi
2:30 pm91 °FBroken clouds.2 mph67%29.53 "Hg2 mi
1:00 pm91 °FFog.5 mph71%29.59 "Hg1 mi
12:30 pm90 °FFog.2 mph75%29.62 "Hg1 mi
12:00 pm90 °FFog.5 mph75%29.62 "Hg1 mi
11:30 am90 °FFog.5 mph75%29.65 "Hg1 mi
11:00 am86 °FFog.8 mph84%29.65 "Hg1 mi
10:30 am86 °FFog.7 mph84%29.65 "Hg1 mi
10:00 am86 °FFog.8 mph84%29.65 "Hg1 mi
9:30 am86 °FFog.7 mph84%29.65 "Hg1 mi
9:00 am86 °FFog.6 mph84%29.65 "Hg1 mi
8:30 am86 °FFog.5 mph84%29.65 "Hg1 mi
8:00 am84 °FFog.5 mph89%29.62 "Hg1 mi
7:30 am84 °FFog.6 mph89%29.62 "Hg1 mi
7:00 am82 °FFog.2 mph94%29.62 "Hg1 mi
Weather by CustomWeather, © 2020

See weather overview